Theta_e
309 311 311 310 309 310 310 311 310 307 305 307 305 307 309 308 301 302 300 297 296 296 296 293 291 290 290 290 289 289 289 289 289 288 287 286 286 286 286 286 285 284 283 282
310 312 309 309 308 309 308 309 307 306 304 304 305 306 307 306 308 307 304 300 297 297 293 290 289 289 289 290 289 289 289 288 288 287 287 286 285 285 285 285 284 283 283 282
310 311 307 309 308 308 307 307 307 308 304 302 301 303 303 303 303 303 303 301 298 298 295 291 289 288 288 289 289 289 288 288 287 287 286 285 284 284 284 284 284 284 283 283
310 308 309 308 309 307 310 305 306 306 305 308 303 310 305 305 306 305 305 300 300 297 296 292 290 288 287 288 289 289 288 287 287 286 286 285 283 282 283 282 282 282 281 280
311 307 307 309 309 305 309 303 304 304 304 302 304 305 306 301 305 307 306 301 299 296 295 293 290 289 288 288 289 289 288 287 286 286 285 284 283 282 282 281 280 280 279 280
308 304 305 307 303 304 302 304 301 298 300 306 307 307 305 304 305 305 304 302 299 295 293 292 290 289 288 288 289 288 288 288 286 285 284 283 283 282 281 280 278 277 278 279
310 306 304 304 307 304 304 307 311 309 307 311 300 303 308 306 303 304 307 303 297 294 291 290 289 288 287 287 288 288 288 287 287 285 284 283 282 281 279 278 277 277 277 278
311 311 304 303 307 308 303 307 311 307 307 308 299 306 308 302 305 301 299 297 293 292 289 289 289 288 288 287 287 288 287 287 286 284 284 282 281 280 279 277 276 276 276 276
310 310 301 301 301 303 304 306 305 306 287 301 307 305 304 302 301 299 298 293 293 292 289 288 288 288 287 287 287 287 287 287 285 284 283 281 280 279 278 277 276 276 276 275
311 312 302 298 298 297 302 300 306 305 308 305 308 307 308 306 305 303 301 299 295 292 288 287 287 287 287 287 287 287 287 286 284 283 281 280 279 278 277 276 277 275 275 275
308 312 307 300 301 302 300 301 300 303 305 307 308 310 303 305 304 304 303 299 296 293 289 287 287 287 286 286 287 286 286 284 283 281 280 278 277 277 276 275 275 274 274 274
306 310 314 311 298 296 300 303 303 307 306 301 303 310 306 305 303 301 302 298 295 292 289 287 286 286 285 285 284 284 284 283 281 280 278 277 276 275 275 275 274 273 273 273
305 309 313 312 302 298 300 299 300 301 302 307 307 309 304 301 301 299 300 295 294 292 288 286 285 285 286 284 283 283 283 281 279 278 277 276 275 274 274 273 273 273 272 272
308 309 313 311 308 302 302 299 301 304 308 309 308 308 308 308 306 303 299 294 294 292 290 286 285 286 286 283 282 281 280 279 278 276 276 275 274 273 273 272 272 271 271 270
306 311 311 312 311 306 304 304 302 303 305 307 308 307 307 308 307 306 306 305 302 291 288 286 286 286 284 282 281 280 279 277 276 275 274 274 273 272 272 271 271 270 270 269
301 310 310 310 309 309 309 307 308 306 305 305 306 306 306 306 306 306 306 305 304 300 291 288 286 285 283 282 279 278 276 276 275 274 273 272 271 271 271 270 269 269 269 268
302 305 304 311 309 307 307 308 309 308 308 308 309 308 307 306 306 306 305 305 304 303 292 288 286 285 284 281 278 276 275 274 273 273 272 271 270 270 270 269 269 269 268 267
306 303 307 310 308 311 309 306 305 306 307 307 307 307 307 307 307 307 304 305 304 298 291 287 285 284 281 278 277 276 274 273 272 271 270 270 269 269 268 268 268 268 266 267
307 308 310 311 312 310 309 307 304 304 307 306 307 306 306 306 302 304 296 297 300 295 288 285 284 279 276 275 274 273 272 272 271 270 269 268 268 268 267 268 267 266 266 266
308 307 309 312 312 313 308 306 305 304 308 307 307 307 307 305 306 307 303 294 289 285 284 281 278 276 274 272 273 272 270 270 269 268 268 268 267 267 267 266 266 266 265 265
305 309 311 311 313 312 308 307 301 307 310 308 305 305 305 305 305 298 285 284 283 282 279 277 276 275 272 272 272 270 269 269 268 268 267 267 267 267 266 265 265 265 264 264
310 309 310 311 311 312 306 305 307 309 308 308 305 302 302 301 299 290 285 282 280 278 278 276 274 272 271 271 272 270 269 267 267 267 267 267 266 267 266 265 266 265 263 263
312 310 312 310 310 305 302 307 307 307 307 307 303 300 300 298 294 288 284 280 279 278 276 275 273 271 270 270 271 269 266 266 266 266 266 266 266 266 266 265 265 263 263 264
308 308 310 310 309 305 302 304 305 305 306 306 303 301 294 297 291 287 282 280 279 277 275 273 272 271 269 269 269 269 266 266 265 265 265 265 266 266 265 265 263 262 263 265
310 307 309 309 308 308 307 306 306 305 299 298 299 297 296 294 290 288 283 280 279 277 275 273 272 271 269 267 266 265 265 265 264 264 263 263 264 265 264 263 262 263 265 267
309 310 311 312 309 309 309 308 307 306 306 304 300 294 293 294 292 286 284 281 279 276 274 273 272 270 267 265 264 264 264 264 264 263 262 262 262 262 262 262 262 263 265 266
Wind_Speed
2 2 8 12 8 2 3 4 7 4 4 4 9 17 20 20 9 16 15 12 16 21 18 23 34 35 31 28 25 22 19 15 13 10 7 6 6 9 8 12 13 17 18 19
3 11 9 5 4 4 3 3 7 7 2 6 8 18 15 17 21 16 18 13 16 13 12 20 29 36 36 34 30 25 20 17 16 14 10 6 7 7 12 14 15 18 19 21
8 4 5 7 4 6 5 6 5 8 4 4 7 9 7 7 9 13 13 11 13 17 17 17 25 34 36 37 35 29 24 19 17 14 11 9 9 9 14 13 19 20 21 22
7 2 6 4 6 8 5 6 3 2 2 4 3 15 4 7 10 9 12 10 14 14 13 15 22 30 34 37 36 32 26 20 16 14 13 12 10 9 12 16 20 21 21 22
7 7 5 5 8 9 7 3 4 1 3 3 4 5 4 3 8 18 10 9 10 12 15 17 21 34 37 39 38 33 29 21 15 13 12 12 13 14 17 19 20 22 21 22
5 1 6 6 3 1 5 4 4 3 2 2 8 10 5 6 9 8 9 7 7 8 11 12 21 26 30 35 38 33 30 25 16 12 11 12 13 15 16 18 18 17 20 24
1 5 3 3 4 3 3 5 4 5 2 9 5 4 13 6 10 12 14 8 6 6 7 9 13 20 26 34 39 35 32 28 20 14 12 13 14 14 15 18 18 19 22 25
5 8 9 6 7 7 6 8 6 9 5 20 4 9 10 16 16 7 6 7 5 7 7 11 14 22 28 32 37 36 32 27 21 15 13 13 13 13 15 17 18 20 22 24
7 9 2 1 2 3 5 6 3 2 2 5 6 13 6 6 12 5 12 6 10 9 9 12 13 23 26 31 37 37 32 27 20 15 13 12 11 12 16 17 19 21 24 23
2 5 1 3 3 0 5 4 3 1 3 7 17 28 18 11 15 11 11 15 11 7 8 10 12 20 24 30 36 35 32 28 19 14 12 11 11 12 15 17 19 22 24 25
5 5 3 2 9 12 3 3 1 2 4 6 13 16 5 8 10 12 12 8 9 9 9 11 11 21 26 31 37 34 31 23 17 13 10 9 10 13 15 18 20 22 22 24
7 5 8 15 1 2 3 9 10 6 7 4 2 29 3 1 9 8 8 7 6 8 8 10 12 19 24 29 30 33 29 22 15 10 7 7 9 11 14 17 18 20 22 24
9 2 3 10 2 3 6 7 6 2 2 19 6 27 6 4 7 9 9 9 9 9 9 9 11 15 24 27 27 32 27 19 13 9 6 5 7 11 14 17 18 20 22 24
11 7 11 20 18 5 6 8 19 19 15 16 28 36 37 36 19 11 8 10 13 11 12 11 11 14 21 24 26 29 23 17 13 8 5 4 7 10 13 16 18 20 21 24
11 12 18 24 30 9 3 10 16 19 30 21 35 22 34 40 21 27 19 22 16 10 12 14 15 14 17 22 24 27 22 17 12 8 5 4 7 10 12 14 16 19 20 21
2 17 14 23 27 21 18 25 26 27 35 28 30 31 44 32 25 27 28 26 20 17 14 14 14 15 17 26 25 25 22 17 11 8 5 4 6 9 12 14 17 19 21 21
7 5 7 25 21 7 4 34 29 27 37 26 30 44 39 28 24 28 24 24 24 20 13 14 17 17 20 26 29 28 24 18 13 9 5 3 6 10 13 15 17 19 21 21
17 11 10 17 9 16 19 18 20 27 35 23 31 36 31 31 32 24 15 23 21 11 11 11 12 14 24 28 31 29 22 17 12 7 4 2 6 10 13 16 18 19 20 20
27 22 11 8 14 18 13 19 9 15 25 29 31 27 33 33 11 26 13 11 19 12 7 10 20 25 27 30 32 29 22 16 12 7 3 2 6 10 13 17 18 19 21 24
28 24 18 12 10 14 18 32 20 12 23 42 29 32 31 18 10 23 7 5 5 7 12 16 26 29 30 28 32 28 21 16 11 7 3 2 5 9 12 14 16 21 22 22
6 9 23 23 20 10 13 24 8 7 27 34 10 20 20 15 16 3 4 4 6 9 15 24 28 26 27 31 30 23 21 15 11 7 3 2 4 7 10 15 17 19 22 24
19 10 10 14 12 19 16 4 17 30 32 28 15 8 9 12 8 7 8 10 13 15 18 24 24 23 25 29 29 21 17 16 11 7 4 3 5 8 10 15 19 21 20 22
19 20 19 16 10 10 10 21 29 29 25 26 6 6 13 10 11 11 8 12 12 16 15 23 26 25 21 24 25 21 18 17 13 9 6 4 6 9 12 16 19 19 17 18
15 24 20 21 20 13 14 17 19 17 26 26 13 8 10 12 9 10 13 13 13 14 15 22 26 21 20 23 21 22 21 17 14 13 9 5 5 9 11 14 12 15 14 17
8 6 15 23 23 23 20 23 24 22 12 13 8 12 19 12 12 16 15 17 17 17 20 25 22 22 22 22 22 21 20 18 15 13 10 7 7 10 12 12 11 12 13 18
17 24 15 17 18 20 30 25 26 25 24 21 17 12 13 17 16 16 15 16 19 20 24 21 22 24 25 24 22 20 18 16 16 14 10 8 8 9 10 14 20 11 13 16
Wind_Direction
12 124 213 212 203 183 163 197 237 245 231 206 232 249 258 272 234 252 243 214 212 221 216 201 201 199 196 193 190 192 192 196 202 211 234 250 266 308 305 308 306 320 323 325
45 234 200 144 164 167 166 213 259 284 262 198 272 262 259 255 258 250 249 227 222 222 195 191 193 196 197 194 194 191 195 198 203 213 226 248 279 293 298 303 307 315 316 321
181 219 109 138 158 165 205 194 226 234 338 254 313 268 236 274 248 265 245 224 214 213 205 196 191 194 195 197 196 195 194 195 202 209 222 244 266 280 294 304 308 313 316 322
233 230 158 162 216 152 236 208 204 289 36 251 360 296 243 245 269 256 259 204 221 209 208 198 194 194 195 199 199 200 196 194 197 206 218 236 250 264 283 294 300 308 316 320
237 163 161 185 220 162 226 121 137 147 213 26 255 270 233 13 265 263 266 223 220 210 200 197 196 198 197 196 199 199 198 196 198 209 225 241 257 273 289 297 305 310 315 320
255 343 172 199 69 134 137 98 68 65 105 243 224 202 165 182 212 256 267 240 213 208 204 203 199 196 196 194 199 199 197 199 202 213 228 245 261 278 289 302 302 302 314 319
258 208 172 159 103 28 94 67 321 312 329 253 140 211 259 229 232 221 237 245 216 215 196 187 183 188 190 193 197 197 198 199 203 214 226 243 261 275 287 298 305 310 317 316
190 266 180 182 199 180 170 168 168 250 263 290 141 245 274 223 242 234 248 251 233 227 194 196 195 195 193 191 192 195 198 200 203 216 233 247 264 279 292 302 307 311 310 309
185 267 89 26 112 140 179 187 167 92 121 296 242 263 288 221 258 261 252 231 242 231 201 201 195 196 194 189 190 195 198 201 204 217 234 253 271 290 300 306 309 315 314 312
233 294 240 154 145 21 183 162 92 356 256 260 270 276 270 216 236 239 246 238 227 236 207 201 197 195 196 191 189 196 199 197 203 217 236 258 279 296 303 310 320 319 316 312
149 157 219 121 209 176 136 211 224 187 158 205 276 283 183 186 201 217 235 230 214 217 211 203 199 195 192 189 189 191 191 190 198 214 235 268 297 309 318 322 324 317 314 310
199 169 229 241 95 359 179 193 174 193 238 238 137 271 346 61 214 218 234 205 223 224 213 203 193 184 186 187 185 184 186 190 195 205 239 277 303 315 319 319 313 316 311 310
172 227 312 275 332 6 211 197 219 319 311 232 198 261 136 123 200 207 217 233 232 226 219 197 183 192 193 185 177 180 183 182 184 199 230 271 301 314 316 316 316 316 314 310
161 168 209 241 260 134 194 205 218 220 243 239 235 257 276 265 269 251 240 235 227 218 217 201 201 200 195 184 172 173 174 178 183 192 223 272 303 311 315 314 317 317 315 311
175 227 218 247 261 251 237 245 221 217 239 232 253 249 258 269 267 270 264 268 265 216 210 205 202 197 184 171 164 172 171 171 178 187 204 260 303 309 317 317 317 318 313 313
203 246 232 249 256 259 250 253 257 248 250 259 263 263 258 275 283 283 276 275 271 251 217 210 199 186 181 173 161 160 165 170 177 181 193 257 296 316 323 325 320 318 317 314
183 204 226 253 256 241 219 245 259 266 265 260 268 264 271 270 267 261 265 268 266 265 208 198 194 187 177 167 157 158 165 165 166 172 203 264 316 327 331 324 320 322 318 316
232 216 230 251 260 241 247 255 245 253 263 263 254 263 274 268 266 267 251 260 266 231 201 191 171 164 159 151 155 157 157 156 157 165 190 303 321 329 328 326 326 324 318 315
223 232 239 236 229 254 308 262 195 228 263 257 258 264 263 269 296 272 213 218 239 219 184 162 156 148 143 141 148 148 150 152 154 160 184 318 329 331 330 331 329 326 318 319
231 223 222 218 228 228 231 246 235 253 271 264 255 256 261 262 264 275 291 204 178 134 144 140 141 142 138 143 150 145 146 151 156 163 163 334 346 330 329 331 328 325 324 312
165 208 219 225 239 244 235 242 118 193 253 264 218 234 242 237 232 249 120 107 126 134 134 136 140 141 140 147 149 140 146 152 160 157 127 40 351 340 341 331 331 334 328 314
223 190 208 227 236 246 226 130 203 227 245 259 242 212 203 217 209 192 161 147 140 139 143 145 133 133 143 150 151 142 146 153 153 137 116 61 12 11 350 344 345 343 329 314
234 214 222 199 209 215 193 211 220 238 243 259 232 205 206 207 208 185 171 156 153 149 144 148 138 136 144 154 157 141 152 155 148 137 126 82 33 14 4 359 349 333 326 320
226 237 235 244 244 223 221 230 237 228 236 253 239 227 190 211 179 173 154 158 156 155 151 149 142 143 147 156 157 156 154 152 148 134 124 94 53 27 12 4 347 322 326 326
234 319 249 253 253 256 255 241 242 247 245 256 243 212 211 195 198 185 175 164 161 160 154 159 155 151 150 151 152 157 155 154 144 134 121 93 55 29 12 3 347 328 333 337
241 242 234 241 237 240 249 253 251 251 246 243 239 227 217 194 203 185 178 169 163 158 157 157 159 150 150 151 151 155 156 155 146 131 118 102 75 47 22 355 348 2 354 349